This is the latest recevied weather packets stored in our database for station/object KB9PMA-1. If no packets are shown the sender has not sent any weather packets the latest 10 day(s).
| Time | Temp. | Humidity | Pressure | Rain* | Wind** | Luminosity | Snow |
|---|---|---|---|---|---|---|---|
| 1777985577 | 14.44° C | 92% | 1008.6 hPa | 0 mm | - | - | - |
| 1777985277 | 13.89° C | 92% | 1008.8 hPa | 0 mm | - | - | - |
| 1777984677 | 14.44° C | 92% | 1008.6 hPa | 0 mm | - | - | - |
| 1777984377 | 13.89° C | 92% | 1008.6 hPa | 0 mm | - | - | - |
| 1777984077 | 13.89° C | 93% | 1008.4 hPa | 0 mm | - | - | - |
| 1777983777 | 13.89° C | 94% | 1008.1 hPa | 0 mm | - | - | - |
| 1777983177 | 13.33° C | 95% | 1008 hPa | 0 mm | - | - | - |
| 1777982877 | 13.33° C | 95% | 1007.8 hPa | 0 mm | - | - | - |
| 1777981677 | 12.78° C | 95% | 1008.4 hPa | 0 mm | - | - | - |
| 1777981077 | 12.78° C | 95% | 1008.5 hPa | 0 mm | - | - | - |
| 1777980777 | 12.78° C | 95% | 1008.6 hPa | 0 mm | - | - | - |
| 1777980177 | 12.22° C | 95% | 1008.4 hPa | 0 mm | - | - | - |
| 1777979577 | 12.22° C | 95% | 1008.1 hPa | 0 mm | - | - | - |
| 1777978677 | 12.22° C | 95% | 1007.8 hPa | 0 mm | - | - | - |
| 1777977477 | 12.22° C | 94% | 1007.7 hPa | 0 mm | - | - | - |
| 1777977177 | 12.22° C | 94% | 1007.6 hPa | 0 mm | - | - | - |
| 1777976577 | 12.22° C | 94% | 1007.6 hPa | 0 mm | - | - | - |
| 1777976277 | 12.22° C | 94% | 1007.6 hPa | 0 mm | - | - | - |
| 1777975977 | 12.22° C | 94% | 1007.4 hPa | 0 mm | - | - | - |
| 1777975677 | 12.78° C | 93% | 1007.3 hPa | 0 mm | - | - | - |
| 1777975077 | 12.78° C | 93% | 1007 hPa | 0 mm | - | - | - |
| 1777973877 | 13.33° C | 92% | 1006.9 hPa | 0 mm | - | - | - |
| 1777973577 | 13.33° C | 92% | 1006.7 hPa | 0 mm | - | - | - |
| 1777973277 | 13.33° C | 92% | 1006.4 hPa | 0 mm | - | - | - |
| 1777972977 | 13.33° C | 92% | 1006.3 hPa | 0 mm | - | - | - |
* Rain latest hour (hover to see other rain measurements)
** Current wind speed in m/s (hover to see current wind gust speed)